NOAA-16
1 26536U 00055A 12012.65663094 .00000436 00000-0 25985-3 0 5820
2 26536 099.1167 052.2062 0011012 161.0847 199.0744 14.12696856582935
NOAA-17
1 27453U 02032A 12012.51767193 .00000067 00000-0 46933-4 0 5609
2 27453 098.3547 047.3414 0010788 255.0015 104.9977 14.24381492496457
NOAA-18
1 28654U 05018A 12012.49278144 .00000374 00000-0 23051-3 0 364
2 28654 099.0262 329.4559 0013736 234.5303 125.4563 14.11590997342452
NOAA-19
1 33591U 09005A 12012.53653666 .00000364 00000-0 22578-3 0 2253
2 33591 098.8506 314.3937 0014875 103.3054 256.9758 14.11278664150918
HUBBLE
1 20580U 90037B 12010.70633230 .00000170 00000-0 00000 0 0 9225
2 20580 028.4699 100.3063 0003433 159.0818 333.3663 15.02064828990879
ISS
1 25544U 98067A 12012.91086523 .00013395 00000-0 17206-3 0 8078
2 25544 051.6417 186.0353 0023538 274.8814 249.9623 15.59140841753645
CO-58
1 28895U 05043F 12011.58143083 .00000704 00000-0 15429-3 0 00717
2 28895 097.9376 244.5815 0016774 287.5849 072.3516 14.60439356330654
FALCON
1 30776U 07006E 12012.83372754 .00003545 00000-0 23861-3 0 2589
2 30776 035.4316 150.9701 0001910 068.4874 291.6046 15.06378620266659
MAST
1 31126U 07012K 12011.98533321 .00000636 00000-0 15280-3 0 03686
2 31126 097.8805 032.2526 0093078 240.4625 118.7271 14.54004296251428
CAPE1
1 31130U 07012P 12011.61097409 .00000722 00000-0 17534-3 0 3672
2 31130 097.8861 028.3998 0100883 253.6924 105.3123 14.52729073250898
COMPASS
1 32787U 08021E 12011.79716713 .00001917 00000-0 23975-3 0 01959
2 32787 097.8234 076.5247 0014775 212.2472 147.7825 14.83384832200478
AAUSAT2
1 32788U 08021F 12011.73068127 .00001997 00000-0 24793-3 0 01860
2 32788 097.8239 076.7606 0014324 212.0917 147.9431 14.83651674200484
DO-64
1 32789U 08021G 12011.77832975 .00003206 00000-0 38405-3 0 02024
2 32789 097.8334 078.2952 0014536 210.5223 149.5123 14.84721083200513
CO-66
1 32791U 08021J 12011.73084363 .00001585 00000-0 20161-3 0 01907
2 32791 097.8242 076.3111 0015154 211.8104 148.2197 14.82911047200403
RS-30
1 32953U 08025A 12012.74007024 .00000010 00000-0 00000 0 0 4284
2 32953 082.5015 032.4268 0017711 291.2318 068.6878 12.43019797165124
TACSAT-3
1 35001U 09028A 12012.87985260 .00075619 00000-0 64995-3 0 8273
2 35001 040.4510 326.9842 0007052 263.3841 096.6151 15.68286607149742
PHARMSAT
1 35002U 09028B 12011.96587443 .00044455 00000-0 49274-3 0 07652
2 35002 040.4684 334.5901 0009507 331.0137 029.0142 15.62065784149581
HAWKSAT1
1 35003U 09028C 11276.79285837 .02274821 58283-2 19360-2 0 8114
2 35003 040.4398 174.3672 0011414 274.3918 085.3844 16.13812532134570
CP6
1 35004U 09028D 11247.64656856 .16152067 73217-5 10011-2 0 7842
2 35004 040.4403 342.9642 0002956 038.0069 322.2231 16.41039951130139
METEOR-M
1 35865U 09049A 12012.78652884 -.00000010 00000-0 15254-4 0 593
2 35865 098.6788 069.8807 0002859 131.5564 228.5849 14.21853399120378
RS-38
1 35869U 09049E 12012.26709719 .00000040 00000-0 37764-4 0 558
2 35869 098.6757 069.3883 0004965 138.2123 221.9434 14.22049251120318
ARISSAT1
1 37772U 98067CK 12004.04884568 .13494171 12416-4 77857-3 0 4794
2 37772 051.6129 213.1240 0007478 255.9283 104.1611 16.41716225 24077
JUGNU
1 37839U 11058B 12011.86669271 .00000619 00000-0 19019-3 0 669
2 37839 019.9626 231.2779 0018680 290.9170 068.9196 14.12016756 12989
SRMSAT
1 37841U 11058D 12012.62750331 .00000264 00000-0 00000 0 0 678
2 37841 019.9716 228.4835 0012518 271.3421 088.5586 14.10107447 13066
RAX-2
1 37853U 11061D 12011.92979228 .00004281 00000-0 35351-3 0 00769
2 37853 101.7086 340.7456 0252085 078.6825 284.2579 14.78414789011156
AUBIESAT
1 37854U 11061E 12012.52805919 .00004412 00000-0 35858-3 0 704
2 37854 101.7109 341.6782 0253938 076.7292 286.2081 14.78658672 11229
HRBE
1 37855U 11061F 12012.86844270 .00004305 00000-0 35046-3 0 693
2 37855 101.7122 342.1677 0254121 075.5333 287.3914 14.78602770 11272
